Showing default

COURIER 1B, 58

Orbit data source: Space-Track

COURIER 1B, 58 is a payload satellite owned by SCEL (US) in LEO that was launched on Tue, 04 Oct 1960 UTC via a THOR ABLESTAR launch vehicle from the Air Force Eastern Test Range (AFETR). Payload-class satellites include a variety of spacecraft equipped with specific instruments for various scientific and technological missions. These include communications satellites like Starlink; space stations such as the ISS; scientific satellites like the Hubble; Earth observation satellites from companies like Planet Labs, Umbra, and HawkEye 360; GPS; miniature CubeSats for education and research; and military/defense satellites.

Loading next visibility...
Identifier
58, 1960-013A
Orbit
LEO
Country
Flag of USUS
Related business
Manufacturer
SCEL/PHLP
Mission
Defense Communications
Bus & Motor
COURIER, Unknown motor
Mass
225 kg wet, 225 kg dry
Launch date (UTC)
1960-10-04 (65 years ago)
Launch vehicle
THOR ABLESTAR
Launch site
Air Force Eastern Test Range (AFETR)
Object type
Payload
Rocket body
Debris
Shape & HBR
Sphere, 0.7 m
Radar Cross Section
1.327 m², Large (>1 m²)

Expand to show TLE details & history
Last TLE update: 22 hours ago

TLE from 22 hours ago
0 COURIER 1B
1 00058U 60013A   25242.09654931  .00000117  00000-0  48475-4 0  9996
2 00058  28.3269 176.7614 0164749 317.3940  41.3929 13.46414116194806
Epoch: 2025-08-30T02:19Z
TLE epoch observation values (Epoch: 2025-08-30T02:19:01.86Z)
Latitude
Longitude
163.46791°
Altitude
992.545 km
Speed
7.402 km/s
True Right ascension
11h 47m 02s
True Declination
0° 00' 00"
Sunlit
Object was in daylight at epoch
Visualization orbit readout
Latitude
Unknown
Longitude
Unknown
Altitude
Unknown
Speed
Unknown
Apparent Right ascension
Unknown
Apparent Declination
Unknown
Sunlit
N/A
Visualization observer readout
Local Sidereal Time
15:33:48
Azimuth
Unknown
Elevation
Unknown
Doppler factor
Unknown
Orbital elements
Apogee altitude
1,212.424 km
Perigee altitude
966.37 km
Semi-major axis
7,467.534 km
Eccentricity
0.01647
Inclination
28.3269°
RAAN
176.7614°
Arg. of periapsis
317.394°
True anomaly
42.66068°
Mean anomaly
41.3929°
Eccentric anomaly
42.02482°
Mean motion
3.36339 °/min
Orbital period
107.03 mins
BSTAR
0.000048475
Loading maneuver chart data...
Computing Atmospheric mass density...
Loading historical data...
Loading historical data...
Loading historical data...
Loading historical data...
Loading historical data...
Loading historical data...
Loading historical data...
Other satellites on launch #13 in the year 1960 (1960-10-04 UTC)

Documentation

Showing up to 5 results
|